Retour au catalogue

COSMOS 2441

ActifMilitaireSSO
NORAD 33272·PAYLOAD·🇷🇺 Russia

Lancé Jul 26, 2008 depuis Plesetsk Cosmodrome

Loading…

Prochains Passages (prochaines 24 heures)

TLE

FraisSource: Space-Track

Époque: Sep 14, 2026, 19:32 UTC

1 33272U 08037A   26257.81420579  .00000144  00000-0  45731-4 0  9996
2 33272  98.3361 204.1170 0017289  66.2747 294.0260 14.53298214961067

Suivez COSMOS 2441 en temps réel avec AllMySat

Download on the App Store